Regional Weather Roundup
Issued by NWS Raleigh/Durham, NC

Home | Current Version | Previous Version | Text Only | Print | Product List | Glossary On
Versions: 1 2 3 4 5 6 7 8 9 10 11 12 13 14 15 16 17 18 19 20 21 22 23 24 25 26 27 28 29 30 31 32 33 34 35 36 37 38 39 40 41 42 43 44 45 46 47 48 49 50
000
ASUS42 KRAH 280710
RWRRAH
NORTH CAROLINA WEATHER ROUNDUP
NATIONAL WEATHER SERVICE RALEIGH NC
300 AM EDT THU AUG 28 2014

NOTE: "FAIR" INDICATES FEW OR NO CLOUDS BELOW 12,000 FEET WITH NO
SIGNIFICANT WEATHER AND/OR OBSTRUCTIONS TO VISIBILITY.

NCZ001-053-055-056-065-067-280800-
WESTERN NORTH CAROLINA

CITY           SKY/WX    TMP DP  RH WIND       PRES   REMARKS
ASHEVILLE      CLEAR     61  59  93 CALM      30.11F
JEFFERSON      CLEAR     68  53  58 W7        30.14F
MORGANTON        N/A     60  60  98 CALM      30.09S
HICKORY        CLEAR     66  62  87 NW5       30.03F
RUTHERFORDTON  CLEAR     64  62  90 N6        30.05S
MOUNT AIRY     CLEAR     67  64  91 CALM      30.04S
BOONE          CLEAR     61  55  81 W7        30.16F
$$

NCZ021-022-025-041-071-084-088-280800-
CENTRAL NORTH CAROLINA

CITY           SKY/WX    TMP DP  RH WIND       PRES   REMARKS
CHARLOTTE      CLEAR     62  60  93 CALM      30.02F
GREENSBORO     CLEAR     70  62  76 W7        29.99F
WINSTON-SALEM  CLEAR     73  63  70 W3        30.01F
RALEIGH-DURHAM PTCLDY    66  62  87 SW3       29.97S
FORT BRAGG     CLEAR     68  61  79 W2        29.97S
FAYETTEVILLE   CLEAR     66  61  84 SW5       29.96F
BURLINGTON     CLEAR     66  62  87 CALM      29.97F
LAURINBURG     CLEAR     62  60  93 CALM      29.98F
$$

NCZ011-015-027-028-043-044-047-080-103-280800-
NORTHEASTERN NORTH CAROLINA

CITY           SKY/WX    TMP DP  RH WIND       PRES   REMARKS
ROCKY MT-WILSO CLEAR     65  62  90 SW5       29.94F
GREENVILLE     CLEAR     66  63  88 CALM      29.95F
WASHINGTON     CLEAR     67  63  86 CALM      29.94S
ELIZABETH CITY CLEAR     68  65  90 W8        29.91S
MANTEO         CLEAR     72  69  93 W5        29.91S
CAPE HATTERAS  NOT AVBL
$$

NCZ078-087-090-091-093-098-101-280800-
SOUTHEASTERN NORTH CAROLINA

CITY           SKY/WX    TMP DP  RH WIND       PRES   REMARKS
LUMBERTON      CLEAR     62  60  93 CALM      29.97F
GOLDSBORO      CLEAR     66  65  98 CALM      29.93F
KINSTON        CLEAR     64  61  90 SW3       29.95F
KENANSVILLE    CLEAR     61  59  94 CALM      29.97S
NEW BERN       CLEAR     68  63  84 CALM      29.95F
CHERRY POINT   CLEAR     66  64  93 SW5       29.95F
BEAUFORT       CLEAR     72  68  87 NW8       29.94S
JACKSONVILLE   CLEAR     65  62  90 SW3       29.95S
WILMINGTON     CLEAR     66  64  93 CALM      29.96F
$$




USA.gov is the U.S. government's official web portal to all federal, state and local government web resources and services.